Weather History for Johnstown, PA

Change the Weather History Date:

Sunday, June 15, 2014

  Actual Average Record
Temperature  
Mean Temperature 63 °F 65 °F  
Max Temperature 77 °F 74 °F 96 °F (1956)
Min Temperature 48 °F 56 °F 38 °F (1933)
Degree Days  
Heating Degree Days 2 2  
Month to date heating degree days 34 58  
Since 1 June heating degree days 34 58  
Since 1 July heating degree days 7247 6667  
Cooling Degree Days 0 2  
Month to date cooling degree days 15 27  
Year to date cooling degree days 41 51  
Since 1 June cooling degree days 15 27  
Growing Degree Days 14 (Base 50)    
Moisture  
Dew Point 48 °F    
Average Humidity 57    
Maximum Humidity 89    
Minimum Humidity 25    
Precipitation  
Precipitation 0.00 in 0.14 in 1.28 in (1919)
Month to date precipitation 3.40 2.20  
Year to date precipitation 16.96 18.84  
Sea Level Pressure  
Sea Level Pressure 30.16 in    
Wind  
Wind Speed 4 mph (SW)    
Max Wind Speed 12 mph    
Max Gust Speed 15 mph    
Visibility 10 miles    
Events Rain    
T = Trace of Precipitation, MM = Missing Value Source: NWS Daily Summary

Daily Weather History Graph

Daily Weather History Graph

Search for Another Location

Airport:

Trip Planner

Search our weather history database for the weather conditions in past years. The results will help you decide how hot, cold, wet, or windy it might be!

Date:

Astronomy

Jun. 15, 2014 Rise Set
Actual Time 5:44 AM EDT 8:46 PM EDT
Civil Twilight 5:11 AM EDT 9:20 PM EDT
Nautical Twilight 4:29 AM EDT 10:02 PM EDT
Astronomical Twilight 3:40 AM EDT 10:51 PM EDT
Moon 10:55 PM EDT (6/15) 8:36 AM EDT (6/15)
Length of Visible Light 16h 08m
Length of Day
15h 02m
Waning Gibbous, 91% of the Moon is Illuminated
Jun 15
Waning Gibbous
Jun 19
Last Quarter
Jun 27
New
Jul 5
First Quarter
Jul 12
Full

Hourly Weather History & Observations

Time (EDT) Temp. Dew Point Humidity Pressure Visibility Wind Dir Wind Speed Gust Speed Precip Events Conditions
12:54 AM 53.1 °F 48.0 °F 83% 30.17 in 10.0 mi SW 6.9 mph - N/A   Clear
1:54 AM 53.1 °F 46.9 °F 80% 30.17 in 10.0 mi WSW 4.6 mph - N/A   Clear
2:54 AM 51.1 °F 48.0 °F 89% 30.16 in 10.0 mi SW 4.6 mph - N/A   Clear
3:54 AM 50.0 °F 46.0 °F 86% 30.16 in 10.0 mi WSW 5.8 mph - N/A   Clear
4:54 AM 50.0 °F 46.9 °F 89% 30.17 in 10.0 mi SW 4.6 mph - N/A   Clear
5:54 AM 50.0 °F 46.9 °F 89% 30.17 in 10.0 mi Calm Calm - N/A   Clear
7:54 AM 55.0 °F 50.0 °F 83% 30.20 in 10.0 mi South 4.6 mph - N/A   Clear
8:54 AM 60.1 °F 51.1 °F 72% 30.20 in 10.0 mi Calm Calm - N/A   Clear
9:54 AM 64.0 °F 50.0 °F 60% 30.19 in 10.0 mi ENE 3.5 mph - 0.00 in Rain Light Rain
10:54 AM 66.0 °F 48.0 °F 52% 30.19 in 10.0 mi North 3.5 mph - 0.00 in Rain Light Rain
11:54 AM 69.1 °F 51.1 °F 53% 30.19 in 10.0 mi Calm Calm - 0.00 in   Clear
12:54 PM 70.0 °F 48.9 °F 47% 30.18 in 10.0 mi SW 3.5 mph - N/A   Clear
1:54 PM 73.0 °F 46.0 °F 38% 30.16 in 10.0 mi Variable 5.8 mph - N/A   Clear
2:54 PM 75.0 °F 37.0 °F 25% 30.15 in 10.0 mi SSW 4.6 mph - N/A   Clear
3:54 PM 75.9 °F 43.0 °F 31% 30.14 in 10.0 mi Variable 4.6 mph - N/A   Clear
4:54 PM 77.0 °F 51.1 °F 40% 30.14 in 10.0 mi West 6.9 mph - N/A   Clear
5:54 PM 77.0 °F 52.0 °F 42% 30.12 in 10.0 mi NW 5.8 mph - N/A   Clear
6:54 PM 75.9 °F 45.0 °F 33% 30.12 in 10.0 mi WNW 4.6 mph - N/A   Clear
7:54 PM 75.0 °F 44.1 °F 33% 30.11 in 10.0 mi Calm Calm - N/A   Clear
8:54 PM 70.0 °F 41.0 °F 35% 30.11 in 10.0 mi Calm Calm - N/A   Clear
9:54 PM 66.9 °F 52.0 °F 59% 30.13 in 10.0 mi SSW 3.5 mph - N/A   Clear
10:54 PM 66.9 °F 53.1 °F 61% 30.14 in 10.0 mi South 4.6 mph - N/A   Clear
11:54 PM 63.0 °F 53.1 °F 70% 30.15 in 10.0 mi SSW 4.6 mph - N/A   Clear